Year,Month,Day,Hour,Minute,Value (Times are PST for windspeed in km/hr)
2007,05,07,00,00,0.10
2007,05,07,00,01,1.00
2007,05,07,00,02,1.30
2007,05,07,00,03,0.10
2007,05,07,00,04,0.90
2007,05,07,00,05,1.00
2007,05,07,00,06,2.40
2007,05,07,00,07,2.70
2007,05,07,00,08,2.70
2007,05,07,00,09,3.40
2007,05,07,00,10,4.20
2007,05,07,00,11,4.40
2007,05,07,00,12,5.50
2007,05,07,00,13,5.60
2007,05,07,00,14,4.10
2007,05,07,00,15,5.10
2007,05,07,00,16,2.60
2007,05,07,00,17,3.40
2007,05,07,00,18,2.60
2007,05,07,00,19,1.50
2007,05,07,00,20,2.20
2007,05,07,00,21,1.10
2007,05,07,00,22,1.80
2007,05,07,00,23,2.40
2007,05,07,00,24,3.50
2007,05,07,00,25,4.80
2007,05,07,00,26,4.60
2007,05,07,00,27,4.70
2007,05,07,00,28,3.20
2007,05,07,00,29,4.20
2007,05,07,00,30,1.90
2007,05,07,00,31,1.90
2007,05,07,00,32,1.10
2007,05,07,00,33,1.10
2007,05,07,00,34,0.20
2007,05,07,00,35,1.60
2007,05,07,00,36,2.50
2007,05,07,00,37,0.00
2007,05,07,00,38,0.70
2007,05,07,00,39,1.90
2007,05,07,00,40,3.30
2007,05,07,00,41,1.30
2007,05,07,00,42,0.00
2007,05,07,00,43,2.20
2007,05,07,00,44,2.20
2007,05,07,00,45,1.90
2007,05,07,00,46,3.40
2007,05,07,00,47,2.40
2007,05,07,00,48,2.20
2007,05,07,00,49,2.00
2007,05,07,00,50,2.80
2007,05,07,00,51,3.00
2007,05,07,00,52,1.90
2007,05,07,00,53,3.00
2007,05,07,00,54,1.80
2007,05,07,00,55,0.00
2007,05,07,00,56,0.90
2007,05,07,00,57,1.60
2007,05,07,00,58,3.50
2007,05,07,00,59,3.40
2007,05,07,01,00,1.20
2007,05,07,01,01,2.30
2007,05,07,01,02,4.50
2007,05,07,01,03,2.60
2007,05,07,01,04,4.10
2007,05,07,01,05,2.60
2007,05,07,01,06,2.80
2007,05,07,01,07,1.70
2007,05,07,01,08,2.90
2007,05,07,01,09,2.30
2007,05,07,01,10,2.70
2007,05,07,01,11,1.40
2007,05,07,01,12,2.40
2007,05,07,01,13,1.80
2007,05,07,01,14,1.80
2007,05,07,01,15,3.80
2007,05,07,01,16,2.70
2007,05,07,01,17,3.60
2007,05,07,01,18,3.30
2007,05,07,01,19,2.00
2007,05,07,01,20,3.00
2007,05,07,01,21,2.20
2007,05,07,01,22,2.10
2007,05,07,01,23,1.90
2007,05,07,01,24,1.00
2007,05,07,01,25,2.50
2007,05,07,01,26,2.60
2007,05,07,01,27,3.50
2007,05,07,01,28,3.40
2007,05,07,01,29,3.80
2007,05,07,01,30,2.10
2007,05,07,01,31,2.40
2007,05,07,01,32,4.00
2007,05,07,01,33,4.20
2007,05,07,01,34,3.00
2007,05,07,01,35,1.50
2007,05,07,01,36,1.30
2007,05,07,01,37,0.40
2007,05,07,01,38,0.00
2007,05,07,01,39,0.00
2007,05,07,01,40,0.00
2007,05,07,01,41,0.10
2007,05,07,01,42,1.50
2007,05,07,01,43,2.40
2007,05,07,01,44,1.70
2007,05,07,01,45,1.30
2007,05,07,01,46,0.70
2007,05,07,01,47,0.10
2007,05,07,01,48,0.20
2007,05,07,01,49,0.30
2007,05,07,01,50,0.90
2007,05,07,01,51,1.00
2007,05,07,01,52,1.10
2007,05,07,01,53,0.00
2007,05,07,01,54,0.10
2007,05,07,01,55,0.60
2007,05,07,01,56,0.60
2007,05,07,01,57,0.00
2007,05,07,01,58,0.00
2007,05,07,01,59,0.00
2007,05,07,02,00,0.90
2007,05,07,02,01,0.30
2007,05,07,02,02,0.80
2007,05,07,02,03,0.70
2007,05,07,02,04,0.80
2007,05,07,02,05,0.80
2007,05,07,02,06,1.20
2007,05,07,02,07,1.10
2007,05,07,02,08,0.80
2007,05,07,02,09,1.90
2007,05,07,02,10,1.60
2007,05,07,02,11,2.10
2007,05,07,02,12,0.70
2007,05,07,02,13,0.00
2007,05,07,02,14,0.00
2007,05,07,02,15,0.00
2007,05,07,02,16,0.00
2007,05,07,02,17,0.00
2007,05,07,02,18,0.10
2007,05,07,02,19,0.20
2007,05,07,02,20,2.60
2007,05,07,02,21,3.10
2007,05,07,02,22,1.90
2007,05,07,02,23,0.90
2007,05,07,02,24,0.00
2007,05,07,02,25,0.00
2007,05,07,02,26,0.00
2007,05,07,02,27,0.00
2007,05,07,02,28,0.00
2007,05,07,02,29,0.00
2007,05,07,02,30,0.00
2007,05,07,02,31,0.00
2007,05,07,02,32,0.70
2007,05,07,02,33,1.10
2007,05,07,02,34,0.00
2007,05,07,02,35,0.20
2007,05,07,02,36,0.00
2007,05,07,02,37,0.80
2007,05,07,02,38,1.20
2007,05,07,02,39,1.70
2007,05,07,02,40,1.10
2007,05,07,02,41,1.30
2007,05,07,02,42,0.20
2007,05,07,02,43,0.60
2007,05,07,02,44,0.40
2007,05,07,02,45,0.30
2007,05,07,02,46,0.70
2007,05,07,02,47,1.10
2007,05,07,02,48,1.10
2007,05,07,02,49,0.30
2007,05,07,02,50,1.50
2007,05,07,02,51,2.30
2007,05,07,02,52,2.40
2007,05,07,02,53,2.30
2007,05,07,02,54,2.30
2007,05,07,02,55,1.50
2007,05,07,02,56,1.60
2007,05,07,02,57,0.80
2007,05,07,02,58,0.70
2007,05,07,02,59,0.00
2007,05,07,03,00,0.10
2007,05,07,03,01,1.20
2007,05,07,03,02,1.20
2007,05,07,03,03,0.00
2007,05,07,03,04,0.00
2007,05,07,03,05,0.30
2007,05,07,03,06,0.60
2007,05,07,03,07,0.40
2007,05,07,03,08,0.00
2007,05,07,03,09,0.80
2007,05,07,03,10,1.90
2007,05,07,03,11,1.50
2007,05,07,03,12,1.00
2007,05,07,03,13,2.30
2007,05,07,03,14,1.40
2007,05,07,03,15,0.60
2007,05,07,03,16,0.60
2007,05,07,03,17,0.50
2007,05,07,03,18,1.20
2007,05,07,03,19,0.50
2007,05,07,03,20,0.10
2007,05,07,03,21,0.80
2007,05,07,03,22,0.70
2007,05,07,03,23,1.80
2007,05,07,03,24,2.20
2007,05,07,03,25,3.30
2007,05,07,03,26,2.60
2007,05,07,03,27,1.90
2007,05,07,03,28,0.10
2007,05,07,03,29,0.00
2007,05,07,03,30,1.20
2007,05,07,03,31,1.80
2007,05,07,03,32,1.20
2007,05,07,03,33,0.60
2007,05,07,03,34,0.10
2007,05,07,03,35,0.00
2007,05,07,03,36,0.00
2007,05,07,03,37,0.00
2007,05,07,03,38,0.10
2007,05,07,03,39,0.90
2007,05,07,03,40,0.50
2007,05,07,03,41,0.00
2007,05,07,03,42,0.00
2007,05,07,03,43,0.00
2007,05,07,03,44,0.00
2007,05,07,03,45,0.00
2007,05,07,03,46,0.20
2007,05,07,03,47,1.30
2007,05,07,03,48,1.20
2007,05,07,03,49,2.30
2007,05,07,03,50,2.70
2007,05,07,03,51,1.00
2007,05,07,03,52,2.00
2007,05,07,03,53,1.20
2007,05,07,03,54,0.50
2007,05,07,03,55,1.10
2007,05,07,03,56,2.00
2007,05,07,03,57,0.40
2007,05,07,03,58,0.90
2007,05,07,03,59,3.80
2007,05,07,04,00,3.60
2007,05,07,04,01,1.40
2007,05,07,04,02,0.80
2007,05,07,04,03,0.00
2007,05,07,04,04,0.00
2007,05,07,04,05,0.20
2007,05,07,04,06,1.00
2007,05,07,04,07,0.20
2007,05,07,04,08,0.00
2007,05,07,04,09,0.20
2007,05,07,04,10,0.60
2007,05,07,04,11,0.90
2007,05,07,04,12,0.00
2007,05,07,04,13,1.60
2007,05,07,04,14,1.60
2007,05,07,04,15,1.70
2007,05,07,04,16,2.00
2007,05,07,04,17,0.70
2007,05,07,04,18,0.90
2007,05,07,04,19,2.40
2007,05,07,04,20,1.60
2007,05,07,04,21,0.10
2007,05,07,04,22,0.00
2007,05,07,04,23,0.00
2007,05,07,04,24,0.10
2007,05,07,04,25,1.50
2007,05,07,04,26,1.50
2007,05,07,04,27,1.30
2007,05,07,04,28,1.50
2007,05,07,04,29,3.20
2007,05,07,04,30,2.30
2007,05,07,04,31,1.40
2007,05,07,04,32,0.20
2007,05,07,04,33,0.00
2007,05,07,04,34,0.00
2007,05,07,04,35,0.00
2007,05,07,04,36,0.10
2007,05,07,04,37,0.20
2007,05,07,04,38,0.00
2007,05,07,04,39,0.00
2007,05,07,04,40,0.00
2007,05,07,04,41,0.00
2007,05,07,04,42,0.30
2007,05,07,04,43,0.00
2007,05,07,04,44,0.00
2007,05,07,04,45,0.00
2007,05,07,04,46,0.60
2007,05,07,04,47,1.90
2007,05,07,04,48,1.70
2007,05,07,04,49,2.60
2007,05,07,04,50,3.80
2007,05,07,04,51,2.70
2007,05,07,04,52,3.60
2007,05,07,04,53,4.70
2007,05,07,04,54,4.80
2007,05,07,04,55,4.30
2007,05,07,04,56,2.70
2007,05,07,04,57,2.70
2007,05,07,04,58,2.40
2007,05,07,04,59,3.90
2007,05,07,05,00,3.40
2007,05,07,05,01,6.20
2007,05,07,05,02,4.40
2007,05,07,05,03,5.80
2007,05,07,05,04,4.70
2007,05,07,05,05,5.10
2007,05,07,05,06,4.70
2007,05,07,05,07,7.30
2007,05,07,05,08,7.30
2007,05,07,05,09,5.10
2007,05,07,05,10,4.60
2007,05,07,05,11,6.00
2007,05,07,05,12,5.20
2007,05,07,05,13,3.40
2007,05,07,05,14,3.20
2007,05,07,05,15,7.90
2007,05,07,05,16,10.90
2007,05,07,05,17,8.30
2007,05,07,05,18,6.00
2007,05,07,05,19,5.60
2007,05,07,05,20,5.40
2007,05,07,05,21,3.20
2007,05,07,05,22,4.10
2007,05,07,05,23,5.40
2007,05,07,05,24,4.20
2007,05,07,05,25,2.20
2007,05,07,05,26,3.40
2007,05,07,05,27,4.20
2007,05,07,05,28,5.00
2007,05,07,05,29,4.40
2007,05,07,05,30,3.60
2007,05,07,05,31,4.80
2007,05,07,05,32,3.60
2007,05,07,05,33,3.10
2007,05,07,05,34,1.80
2007,05,07,05,35,3.10
2007,05,07,05,36,2.70
2007,05,07,05,37,1.90
2007,05,07,05,38,2.20
2007,05,07,05,39,0.80
2007,05,07,05,40,1.20
2007,05,07,05,41,0.40
2007,05,07,05,42,0.40
2007,05,07,05,43,0.80
2007,05,07,05,44,1.70
2007,05,07,05,45,3.00
2007,05,07,05,46,1.30
2007,05,07,05,47,0.00
2007,05,07,05,48,0.00
2007,05,07,05,49,0.00
2007,05,07,05,50,0.20
2007,05,07,05,51,1.50
2007,05,07,05,52,0.00
2007,05,07,05,53,0.00
2007,05,07,05,54,0.20
2007,05,07,05,55,0.60
2007,05,07,05,56,3.10
2007,05,07,05,57,4.60
2007,05,07,05,58,5.50
2007,05,07,05,59,3.40
2007,05,07,06,00,3.20
2007,05,07,06,01,3.10
2007,05,07,06,02,3.40
2007,05,07,06,03,3.80
2007,05,07,06,04,4.80
2007,05,07,06,05,3.50
2007,05,07,06,06,3.50
2007,05,07,06,07,2.40
2007,05,07,06,08,1.10
2007,05,07,06,09,0.20
2007,05,07,06,10,2.60
2007,05,07,06,11,2.20
2007,05,07,06,12,2.80
2007,05,07,06,13,2.80
2007,05,07,06,14,1.00
2007,05,07,06,15,0.00
2007,05,07,06,16,0.10
2007,05,07,06,17,0.80
2007,05,07,06,18,0.30
2007,05,07,06,19,3.10
2007,05,07,06,20,2.80
2007,05,07,06,21,1.10
2007,05,07,06,22,1.90
2007,05,07,06,23,1.50
2007,05,07,06,24,1.80
2007,05,07,06,25,4.20
2007,05,07,06,26,4.80
2007,05,07,06,27,3.10
2007,05,07,06,28,5.10
2007,05,07,06,29,6.20
2007,05,07,06,30,4.40
2007,05,07,06,31,4.20
2007,05,07,06,32,3.80
2007,05,07,06,33,5.80
2007,05,07,06,34,4.90
2007,05,07,06,35,5.60
2007,05,07,06,36,7.50
2007,05,07,06,37,4.30
2007,05,07,06,38,4.70
2007,05,07,06,39,4.40
2007,05,07,06,40,8.20
2007,05,07,06,41,5.80
2007,05,07,06,42,3.20
2007,05,07,06,43,2.60
2007,05,07,06,44,2.80
2007,05,07,06,45,5.80
2007,05,07,06,46,3.80
2007,05,07,06,47,6.80
2007,05,07,06,48,4.90
2007,05,07,06,49,5.10
2007,05,07,06,50,3.90
2007,05,07,06,51,4.20
2007,05,07,06,52,3.40
2007,05,07,06,53,2.80
2007,05,07,06,54,4.00
2007,05,07,06,55,2.70
2007,05,07,06,56,4.50
2007,05,07,06,57,3.60
2007,05,07,06,58,2.70
2007,05,07,06,59,3.00
2007,05,07,07,00,2.00
2007,05,07,07,01,0.50
2007,05,07,07,02,3.30
2007,05,07,07,03,5.20
2007,05,07,07,04,3.80
2007,05,07,07,05,4.30
2007,05,07,07,06,2.40
2007,05,07,07,07,2.20
2007,05,07,07,08,4.00
2007,05,07,07,09,3.40
2007,05,07,07,10,4.70
2007,05,07,07,11,2.90
2007,05,07,07,12,3.50
2007,05,07,07,13,2.40
2007,05,07,07,14,3.40
2007,05,07,07,15,1.20
2007,05,07,07,16,1.00
2007,05,07,07,17,1.60
2007,05,07,07,18,2.60
2007,05,07,07,19,1.40
2007,05,07,07,20,1.40
2007,05,07,07,21,3.20
2007,05,07,07,22,5.70
2007,05,07,07,23,3.70
2007,05,07,07,24,4.30
2007,05,07,07,25,3.00
2007,05,07,07,26,1.40
2007,05,07,07,27,1.30
2007,05,07,07,28,2.00
2007,05,07,07,29,4.50
2007,05,07,07,30,3.20
2007,05,07,07,31,1.00
2007,05,07,07,32,3.30
2007,05,07,07,33,4.30
2007,05,07,07,34,5.10
2007,05,07,07,35,4.70
2007,05,07,07,36,3.10
2007,05,07,07,37,5.40
2007,05,07,07,38,7.00
2007,05,07,07,39,5.00
2007,05,07,07,40,4.40
2007,05,07,07,41,5.50
2007,05,07,07,42,4.80
2007,05,07,07,43,7.50
2007,05,07,07,44,4.60
2007,05,07,07,45,4.90
2007,05,07,07,46,3.40
2007,05,07,07,47,3.50
2007,05,07,07,48,3.20
2007,05,07,07,49,3.30
2007,05,07,07,50,1.90
2007,05,07,07,51,4.70
2007,05,07,07,52,4.10
2007,05,07,07,53,3.40
2007,05,07,07,54,3.20
2007,05,07,07,55,3.80
2007,05,07,07,56,4.70
2007,05,07,07,57,4.40
2007,05,07,07,58,3.90
2007,05,07,07,59,5.60
2007,05,07,08,00,3.70
2007,05,07,08,01,4.30
2007,05,07,08,02,5.60
2007,05,07,08,03,3.00
2007,05,07,08,04,5.40
2007,05,07,08,05,2.30
2007,05,07,08,06,4.40
2007,05,07,08,07,4.40
2007,05,07,08,08,3.80
2007,05,07,08,09,3.80
2007,05,07,08,10,5.00
2007,05,07,08,11,2.90
2007,05,07,08,12,2.80
2007,05,07,08,13,3.90
2007,05,07,08,14,7.10
2007,05,07,08,15,4.30
2007,05,07,08,16,3.20
2007,05,07,08,17,2.30
2007,05,07,08,18,1.20
2007,05,07,08,19,3.00
2007,05,07,08,20,4.20
2007,05,07,08,21,3.60
2007,05,07,08,22,4.50
2007,05,07,08,23,7.20
2007,05,07,08,24,5.70
2007,05,07,08,25,5.20
2007,05,07,08,26,2.60
2007,05,07,08,27,1.90
2007,05,07,08,28,1.50
2007,05,07,08,29,2.00
2007,05,07,08,30,4.70
2007,05,07,08,31,6.30
2007,05,07,08,32,4.10
2007,05,07,08,33,4.70
2007,05,07,08,34,5.40
2007,05,07,08,35,5.60
2007,05,07,08,36,7.60
2007,05,07,08,37,3.70
2007,05,07,08,38,3.50
2007,05,07,08,39,8.70
2007,05,07,08,40,8.40
2007,05,07,08,41,4.30
2007,05,07,08,42,0.60
2007,05,07,08,43,2.60
2007,05,07,08,44,5.60
2007,05,07,08,45,3.20
2007,05,07,08,46,5.20
2007,05,07,08,47,4.00
2007,05,07,08,48,5.10
2007,05,07,08,49,5.40
2007,05,07,08,50,1.20
2007,05,07,08,51,0.70
2007,05,07,08,52,2.70
2007,05,07,08,53,3.10
2007,05,07,08,54,1.80
2007,05,07,08,55,0.30
2007,05,07,08,56,1.80
2007,05,07,08,57,3.80
2007,05,07,08,58,6.10
2007,05,07,08,59,7.10
2007,05,07,09,00,8.10
2007,05,07,09,01,5.60
2007,05,07,09,02,7.10
2007,05,07,09,03,5.20
2007,05,07,09,04,5.70
2007,05,07,09,05,6.20
2007,05,07,09,06,6.90
2007,05,07,09,07,2.30
2007,05,07,09,08,6.50
2007,05,07,09,09,6.80
2007,05,07,09,10,6.00
2007,05,07,09,11,7.30
2007,05,07,09,12,4.50
2007,05,07,09,13,6.40
2007,05,07,09,14,7.80
2007,05,07,09,15,7.50
2007,05,07,09,16,8.80
2007,05,07,09,17,7.60
2007,05,07,09,18,7.40
2007,05,07,09,19,6.40
2007,05,07,09,20,4.30
2007,05,07,09,21,4.60
2007,05,07,09,22,8.70
2007,05,07,09,23,6.70
2007,05,07,09,24,3.50
2007,05,07,09,25,9.00
2007,05,07,09,26,8.50
2007,05,07,09,27,8.60
2007,05,07,09,28,5.30
2007,05,07,09,29,5.60
2007,05,07,09,30,7.40
2007,05,07,09,31,8.40
2007,05,07,09,32,9.10
2007,05,07,09,33,3.10
2007,05,07,09,34,4.40
2007,05,07,09,35,4.80
2007,05,07,09,36,7.90
2007,05,07,09,37,4.30
2007,05,07,09,38,2.70
2007,05,07,09,39,5.60
2007,05,07,09,40,8.10
2007,05,07,09,41,6.80
2007,05,07,09,42,6.60
2007,05,07,09,43,4.00
2007,05,07,09,44,4.50
2007,05,07,09,45,6.90
2007,05,07,09,46,6.70
2007,05,07,09,47,4.70
2007,05,07,09,48,4.70
2007,05,07,09,49,5.80
2007,05,07,09,50,6.60
2007,05,07,09,51,5.60
2007,05,07,09,52,3.60
2007,05,07,09,53,5.30
2007,05,07,09,54,4.20
2007,05,07,09,55,3.00
2007,05,07,09,56,3.00
2007,05,07,09,57,3.20
2007,05,07,09,58,2.60
2007,05,07,09,59,5.40
2007,05,07,10,00,5.80
2007,05,07,10,01,3.80
2007,05,07,10,02,3.20
2007,05,07,10,03,4.40
2007,05,07,10,04,3.00
2007,05,07,10,05,2.50
2007,05,07,10,06,4.30
2007,05,07,10,07,5.30
2007,05,07,10,08,4.50
2007,05,07,10,09,2.50
2007,05,07,10,10,2.00
2007,05,07,10,11,4.70
2007,05,07,10,12,2.70
2007,05,07,10,13,4.40
2007,05,07,10,14,4.30
2007,05,07,10,15,4.80
2007,05,07,10,16,6.10
2007,05,07,10,17,4.70
2007,05,07,10,18,5.80
2007,05,07,10,19,4.80
2007,05,07,10,20,2.70
2007,05,07,10,21,8.10
2007,05,07,10,22,7.10
2007,05,07,10,23,3.90
2007,05,07,10,24,5.50
2007,05,07,10,25,10.00
2007,05,07,10,26,9.70
2007,05,07,10,27,9.60
2007,05,07,10,28,5.70
2007,05,07,10,29,4.50
2007,05,07,10,30,6.70
2007,05,07,10,31,7.50
2007,05,07,10,32,9.70
2007,05,07,10,33,7.00
2007,05,07,10,34,7.40
2007,05,07,10,35,12.10
2007,05,07,10,36,6.10
2007,05,07,10,37,6.00
2007,05,07,10,38,5.90
2007,05,07,10,39,10.90
2007,05,07,10,40,5.50
2007,05,07,10,41,6.80
2007,05,07,10,42,10.40
2007,05,07,10,43,7.70
2007,05,07,10,44,9.70
2007,05,07,10,45,9.10
2007,05,07,10,46,12.10
2007,05,07,10,47,12.40
2007,05,07,10,48,7.30
2007,05,07,10,49,8.00
2007,05,07,10,50,13.00
2007,05,07,10,51,9.30
2007,05,07,10,52,9.10
2007,05,07,10,53,14.10
2007,05,07,10,54,9.90
2007,05,07,10,55,10.20
2007,05,07,10,56,14.00
2007,05,07,10,57,10.20
2007,05,07,10,58,5.80
2007,05,07,10,59,10.90
2007,05,07,11,00,10.50
2007,05,07,11,01,10.50
2007,05,07,11,02,16.90
2007,05,07,11,03,12.90
2007,05,07,11,04,12.60
2007,05,07,11,05,10.70
2007,05,07,11,06,16.50
2007,05,07,11,07,17.90
2007,05,07,11,08,8.10
2007,05,07,11,09,14.30
2007,05,07,11,10,16.60
2007,05,07,11,11,17.80
2007,05,07,11,12,14.00
2007,05,07,11,13,12.30
2007,05,07,11,14,16.10
2007,05,07,11,15,13.70
2007,05,07,11,16,15.90
2007,05,07,11,17,16.20
2007,05,07,11,18,12.10
2007,05,07,11,19,11.30
2007,05,07,11,20,10.30
2007,05,07,11,21,12.30
2007,05,07,11,22,9.30
2007,05,07,11,23,8.90
2007,05,07,11,24,7.60
2007,05,07,11,25,12.60
2007,05,07,11,26,7.90
2007,05,07,11,27,13.80
2007,05,07,11,28,8.80
2007,05,07,11,29,6.80
2007,05,07,11,30,6.70
2007,05,07,11,31,8.40
2007,05,07,11,32,9.40
2007,05,07,11,33,14.40
2007,05,07,11,34,10.90
2007,05,07,11,35,8.80
2007,05,07,11,36,9.30
2007,05,07,11,37,8.10
2007,05,07,11,38,9.30
2007,05,07,11,39,8.50
2007,05,07,11,40,6.30
2007,05,07,11,41,6.40
2007,05,07,11,42,7.60
2007,05,07,11,43,9.00
2007,05,07,11,44,7.90
2007,05,07,11,45,12.00
2007,05,07,11,46,12.70
2007,05,07,11,47,14.30
2007,05,07,11,48,10.70
2007,05,07,11,49,12.70
2007,05,07,11,50,10.70
2007,05,07,11,51,13.20
2007,05,07,11,52,10.50
2007,05,07,11,53,14.20
2007,05,07,11,54,11.40
2007,05,07,11,55,7.70
2007,05,07,11,56,6.20
2007,05,07,11,57,14.60
2007,05,07,11,58,13.80
2007,05,07,11,59,6.40
2007,05,07,12,00,6.60
2007,05,07,12,01,11.70
2007,05,07,12,02,13.00
2007,05,07,12,03,10.10
2007,05,07,12,04,7.40
2007,05,07,12,05,8.80
2007,05,07,12,06,13.30
2007,05,07,12,07,8.10
2007,05,07,12,08,8.30
2007,05,07,12,09,10.80
2007,05,07,12,10,12.30
2007,05,07,12,11,13.60
2007,05,07,12,12,13.50
2007,05,07,12,13,10.00
2007,05,07,12,14,7.50
2007,05,07,12,15,10.30
2007,05,07,12,16,11.80
2007,05,07,12,17,9.90
2007,05,07,12,18,11.70
2007,05,07,12,19,8.60
2007,05,07,12,20,10.70
2007,05,07,12,21,15.50
2007,05,07,12,22,14.70
2007,05,07,12,23,11.20
2007,05,07,12,24,16.60
2007,05,07,12,25,10.60
2007,05,07,12,26,19.10
2007,05,07,12,27,14.70
2007,05,07,12,28,16.40
2007,05,07,12,29,12.70
2007,05,07,12,30,9.90
2007,05,07,12,31,16.20
2007,05,07,12,32,10.10
2007,05,07,12,33,13.10
2007,05,07,12,34,10.30
2007,05,07,12,35,9.40
2007,05,07,12,36,12.60
2007,05,07,12,37,7.20
2007,05,07,12,38,9.20
2007,05,07,12,39,7.40
2007,05,07,12,40,6.90
2007,05,07,12,41,10.00
2007,05,07,12,42,13.00
2007,05,07,12,43,10.00
2007,05,07,12,44,15.00
2007,05,07,12,45,17.50
2007,05,07,12,46,15.90
2007,05,07,12,47,15.60
2007,05,07,12,48,17.10
2007,05,07,12,49,16.70
2007,05,07,12,50,17.20
2007,05,07,12,51,12.40
2007,05,07,12,52,13.20
2007,05,07,12,53,16.70
2007,05,07,12,54,17.60
2007,05,07,12,55,12.30
2007,05,07,12,56,12.40
2007,05,07,12,57,13.80
2007,05,07,12,58,15.00
2007,05,07,12,59,16.80
2007,05,07,13,00,14.50
2007,05,07,13,01,9.80
2007,05,07,13,02,18.40
2007,05,07,13,03,12.60
2007,05,07,13,04,15.20
2007,05,07,13,05,18.50
2007,05,07,13,06,11.90
2007,05,07,13,07,8.20
2007,05,07,13,08,11.30
2007,05,07,13,09,7.70
2007,05,07,13,10,11.30
2007,05,07,13,11,13.10
2007,05,07,13,12,13.00
2007,05,07,13,13,10.50
2007,05,07,13,14,11.50
2007,05,07,13,15,13.70
2007,05,07,13,16,16.20
2007,05,07,13,17,15.20
2007,05,07,13,18,13.10
2007,05,07,13,19,13.40
2007,05,07,13,20,11.70
2007,05,07,13,21,15.70
2007,05,07,13,22,8.90
2007,05,07,13,23,7.10
2007,05,07,13,24,11.70
2007,05,07,13,25,8.40
2007,05,07,13,26,8.20
2007,05,07,13,27,9.50
2007,05,07,13,28,8.70
2007,05,07,13,29,10.40
2007,05,07,13,30,11.80
2007,05,07,13,31,8.30
2007,05,07,13,32,7.40
2007,05,07,13,33,7.00
2007,05,07,13,34,11.40
2007,05,07,13,35,13.50
2007,05,07,13,36,9.20
2007,05,07,13,37,8.90
2007,05,07,13,38,14.20
2007,05,07,13,39,9.00
2007,05,07,13,40,12.20
2007,05,07,13,41,13.00
2007,05,07,13,42,9.20
2007,05,07,13,43,15.10
2007,05,07,13,44,11.90
2007,05,07,13,45,14.20
2007,05,07,13,46,16.90
2007,05,07,13,47,18.70
2007,05,07,13,48,18.30
2007,05,07,13,49,10.40
2007,05,07,13,50,11.80
2007,05,07,13,51,13.70
2007,05,07,13,52,7.90
2007,05,07,13,53,18.00
2007,05,07,13,54,16.20
2007,05,07,13,55,15.50
2007,05,07,13,56,13.80
2007,05,07,13,57,9.80
2007,05,07,13,58,9.30
2007,05,07,13,59,7.20
2007,05,07,14,00,8.10
2007,05,07,14,01,10.10
2007,05,07,14,02,8.70
2007,05,07,14,03,14.10
2007,05,07,14,04,13.80
2007,05,07,14,05,14.00
2007,05,07,14,06,15.30
2007,05,07,14,07,13.60
2007,05,07,14,08,14.30
2007,05,07,14,09,13.60
2007,05,07,14,10,9.70
2007,05,07,14,11,12.20
2007,05,07,14,12,14.50
2007,05,07,14,13,10.50
2007,05,07,14,14,10.50
2007,05,07,14,15,12.00
2007,05,07,14,16,9.40
2007,05,07,14,17,13.00
2007,05,07,14,18,11.10
2007,05,07,14,19,13.50
2007,05,07,14,20,13.40
2007,05,07,14,21,8.90
2007,05,07,14,22,8.50
2007,05,07,14,23,10.90
2007,05,07,14,24,9.50
2007,05,07,14,25,11.70
2007,05,07,14,26,13.80
2007,05,07,14,27,16.70
2007,05,07,14,28,16.80
2007,05,07,14,29,13.50
2007,05,07,14,30,13.80
2007,05,07,14,31,11.80
2007,05,07,14,32,10.10
2007,05,07,14,33,11.00
2007,05,07,14,34,10.20
2007,05,07,14,35,17.80
2007,05,07,14,36,12.50
2007,05,07,14,37,13.10
2007,05,07,14,38,16.80
2007,05,07,14,39,11.80
2007,05,07,14,40,11.80
2007,05,07,14,41,8.40
2007,05,07,14,42,13.50
2007,05,07,14,43,12.30
2007,05,07,14,44,14.40
2007,05,07,14,45,9.70
2007,05,07,14,46,11.10
2007,05,07,14,47,14.10
2007,05,07,14,48,12.70
2007,05,07,14,49,10.50
2007,05,07,14,50,11.60
2007,05,07,14,51,13.20
2007,05,07,14,52,12.80
2007,05,07,14,53,13.70
2007,05,07,14,54,11.10
2007,05,07,14,55,9.40
2007,05,07,14,56,13.60
2007,05,07,14,57,7.80
2007,05,07,14,58,11.90
2007,05,07,14,59,8.10
2007,05,07,15,00,10.10
2007,05,07,15,01,9.40
2007,05,07,15,02,10.50
2007,05,07,15,03,7.10
2007,05,07,15,04,7.90
2007,05,07,15,05,7.80
2007,05,07,15,06,11.20
2007,05,07,15,07,8.10
2007,05,07,15,08,12.80
2007,05,07,15,09,8.30
2007,05,07,15,10,6.20
2007,05,07,15,11,11.20
2007,05,07,15,12,10.70
2007,05,07,15,13,8.50
2007,05,07,15,14,7.40
2007,05,07,15,15,9.30
2007,05,07,15,16,12.20
2007,05,07,15,17,8.70
2007,05,07,15,18,8.60
2007,05,07,15,19,7.60
2007,05,07,15,20,11.30
2007,05,07,15,21,7.80
2007,05,07,15,22,10.20
2007,05,07,15,23,8.40
2007,05,07,15,24,10.80
2007,05,07,15,25,10.30
2007,05,07,15,26,5.80
2007,05,07,15,27,9.90
2007,05,07,15,28,12.90
2007,05,07,15,29,9.10
2007,05,07,15,30,9.40
2007,05,07,15,31,9.10
2007,05,07,15,32,10.40
2007,05,07,15,33,10.40
2007,05,07,15,34,9.90
2007,05,07,15,35,9.90
2007,05,07,15,36,9.80
2007,05,07,15,37,7.30
2007,05,07,15,38,7.50
2007,05,07,15,39,7.20
2007,05,07,15,40,8.70
2007,05,07,15,41,8.80
2007,05,07,15,42,10.60
2007,05,07,15,43,8.10
2007,05,07,15,44,8.50
2007,05,07,15,45,7.10
2007,05,07,15,46,5.80
2007,05,07,15,47,10.80
2007,05,07,15,48,7.70
2007,05,07,15,49,6.90
2007,05,07,15,50,7.20
2007,05,07,15,51,7.10
2007,05,07,15,52,9.00
2007,05,07,15,53,7.40
2007,05,07,15,54,6.70
2007,05,07,15,55,10.90
2007,05,07,15,56,9.80
2007,05,07,15,57,10.30
2007,05,07,15,58,12.70
2007,05,07,15,59,10.50
2007,05,07,16,00,6.40
2007,05,07,16,01,6.80
2007,05,07,16,02,8.40
2007,05,07,16,03,11.10
2007,05,07,16,04,10.10
2007,05,07,16,05,9.90
2007,05,07,16,06,7.50
2007,05,07,16,07,8.90
2007,05,07,16,08,7.50
2007,05,07,16,09,12.30
2007,05,07,16,10,8.40
2007,05,07,16,11,10.50
2007,05,07,16,12,11.30
2007,05,07,16,13,8.00
2007,05,07,16,14,12.70
2007,05,07,16,15,13.30
2007,05,07,16,16,10.10
2007,05,07,16,17,6.70
2007,05,07,16,18,7.10
2007,05,07,16,19,9.60
2007,05,07,16,20,10.90
2007,05,07,16,21,9.20
2007,05,07,16,22,10.30
2007,05,07,16,23,8.90
2007,05,07,16,24,11.00
2007,05,07,16,25,8.80
2007,05,07,16,26,8.10
2007,05,07,16,27,9.40
2007,05,07,16,28,5.80
2007,05,07,16,29,8.90
2007,05,07,16,30,8.50
2007,05,07,16,31,9.50
2007,05,07,16,32,7.70
2007,05,07,16,33,12.60
2007,05,07,16,34,7.80
2007,05,07,16,35,8.00
2007,05,07,16,36,11.80
2007,05,07,16,37,11.80
2007,05,07,16,38,8.40
2007,05,07,16,39,8.90
2007,05,07,16,40,5.40
2007,05,07,16,41,9.20
2007,05,07,16,42,7.10
2007,05,07,16,43,9.50
2007,05,07,16,44,6.10
2007,05,07,16,45,8.10
2007,05,07,16,46,8.80
2007,05,07,16,47,10.40
2007,05,07,16,48,7.50
2007,05,07,16,49,8.30
2007,05,07,16,50,9.50
2007,05,07,16,51,7.50
2007,05,07,16,52,7.00
2007,05,07,16,53,6.40
2007,05,07,16,54,11.20
2007,05,07,16,55,10.00
2007,05,07,16,56,8.30
2007,05,07,16,57,9.50
2007,05,07,16,58,12.20
2007,05,07,16,59,9.70
2007,05,07,17,00,9.70
2007,05,07,17,01,6.10
2007,05,07,17,02,6.30
2007,05,07,17,03,6.20
2007,05,07,17,04,9.30
2007,05,07,17,05,8.40
2007,05,07,17,06,7.70
2007,05,07,17,07,6.40
2007,05,07,17,08,9.00
2007,05,07,17,09,8.50
2007,05,07,17,10,7.30
2007,05,07,17,11,7.10
2007,05,07,17,12,11.50
2007,05,07,17,13,10.70
2007,05,07,17,14,7.30
2007,05,07,17,15,6.00
2007,05,07,17,16,7.50
2007,05,07,17,17,8.40
2007,05,07,17,18,6.90
2007,05,07,17,19,8.50
2007,05,07,17,20,8.00
2007,05,07,17,21,7.60
2007,05,07,17,22,7.80
2007,05,07,17,23,8.50
2007,05,07,17,24,7.10
2007,05,07,17,25,6.40
2007,05,07,17,26,8.50
2007,05,07,17,27,9.20
2007,05,07,17,28,5.30
2007,05,07,17,29,5.70
2007,05,07,17,30,7.50
2007,05,07,17,31,7.30
2007,05,07,17,32,7.10
2007,05,07,17,33,6.90
2007,05,07,17,34,6.40
2007,05,07,17,35,8.40
2007,05,07,17,36,5.00
2007,05,07,17,37,8.50
2007,05,07,17,38,8.00
2007,05,07,17,39,8.70
2007,05,07,17,40,6.40
2007,05,07,17,41,7.40
2007,05,07,17,42,9.40
2007,05,07,17,43,6.50
2007,05,07,17,44,4.10
2007,05,07,17,45,7.20
2007,05,07,17,46,7.10
2007,05,07,17,47,6.10
2007,05,07,17,48,5.50
2007,05,07,17,49,7.70
2007,05,07,17,50,7.30
2007,05,07,17,51,5.60
2007,05,07,17,52,7.40
2007,05,07,17,53,7.10
2007,05,07,17,54,7.20
2007,05,07,17,55,7.10
2007,05,07,17,56,5.40